Wind_Speed
21 22 22 22 22 22 22 23 23 23 22 21 20 20 21 21 22 22 22 22 23 23 24 25 26 26 28 28 29 29 30 31 33 34 35 36 37 38 39 41 42 42 42
20 20 21 21 21 21 21 22 22 22 21 21 21 21 21 21 22 22 23 23 23 24 24 25 26 27 28 28 28 29 30 32 33 34 34 35 37 38 39 40 40 40 40
18 19 19 20 20 20 21 21 20 20 21 21 21 21 21 21 22 22 23 23 24 24 25 25 26 27 28 28 29 30 31 32 33 34 34 36 37 37 37 37 37 36 36
17 17 18 18 19 20 20 21 21 21 21 21 21 21 21 21 22 22 23 24 25 25 25 26 26 27 28 29 30 31 32 32 33 34 34 35 35 35 34 34 33 32 32
17 17 17 18 18 19 20 20 20 21 21 21 21 21 22 23 23 24 24 25 25 25 26 26 27 28 29 29 30 31 31 32 32 32 32 32 32 31 30 30 29 29 29
17 17 17 17 18 18 19 19 20 20 20 21 21 21 21 22 22 23 23 24 24 25 25 26 26 27 28 28 29 29 30 30 30 30 30 29 28 28 27 27 27 26 25
17 18 18 17 17 18 18 18 17 17 18 19 19 19 19 19 20 21 22 22 23 24 25 25 26 27 27 27 28 28 28 28 28 27 27 27 27 26 25 25 24 23 23
16 16 16 16 16 16 16 16 16 16 17 17 17 18 19 20 20 21 21 22 23 23 24 25 25 26 26 25 25 25 25 25 25 25 25 25 25 24 23 23 22 21 21
13 13 13 13 14 14 14 14 15 16 17 17 17 18 18 19 20 19 19 20 21 22 22 23 24 24 24 24 23 23 23 23 23 23 23 23 23 22 21 21 20 20 19
10 11 11 11 11 12 13 14 15 15 16 16 16 17 16 17 17 18 18 19 19 19 20 21 21 22 22 22 21 21 21 21 22 22 21 21 21 20 20 19 19 18 18
7 7 8 8 9 10 11 11 13 14 14 15 15 15 15 15 15 16 16 17 17 17 18 18 18 18 18 19 19 20 20 20 20 20 19 19 19 19 18 17 17 17 17
4 5 5 5 6 6 7 8 9 10 11 12 12 12 13 13 13 14 14 15 15 15 15 15 15 15 16 17 17 18 18 18 18 18 18 17 17 17 16 16 16 16 15
3 3 3 4 4 5 6 7 7 8 9 9 10 10 10 10 10 11 11 12 12 12 12 12 13 14 15 15 15 15 15 15 15 15 15 15 15 15 15 15 14 14 13
2 2 2 2 3 3 4 5 5 5 6 6 7 7 7 7 8 8 8 9 9 9 10 11 12 12 13 13 13 13 13 13 13 13 14 13 13 13 13 12 11 11 10
2 2 1 1 1 2 2 2 2 3 3 4 4 5 5 5 5 6 6 6 6 7 9 10 10 11 11 11 12 12 12 12 12 12 12 11 11 11 10 9 9 9 9
2 2 1 1 1 2 2 2 1 1 1 2 2 3 3 3 3 4 4 5 6 7 8 9 9 9 10 10 10 10 10 10 10 10 10 9 8 8 8 7 7 7 7
3 2 2 2 2 2 2 2 2 2 2 2 2 2 2 3 3 4 5 6 6 7 7 8 8 9 9 9 9 9 9 9 8 8 8 7 7 6 6 6 6 5 5
4 4 3 3 3 4 4 4 4 4 4 4 4 5 4 4 5 5 6 6 7 7 7 8 8 9 9 9 9 9 8 7 7 7 7 6 6 6 5 5 5 4 4
6 6 5 5 5 5 6 6 6 6 6 6 6 6 6 6 7 7 7 8 8 9 9 9 9 9 9 9 9 9 8 8 8 7 7 6 6 5 5 4 4 4 4
8 7 7 7 7 7 7 7 7 8 8 8 8 8 8 8 9 9 9 10 10 10 11 11 11 11 11 11 11 10 9 9 9 8 8 7 6 6 5 5 5 4 4
10 10 10 9 9 10 10 10 10 10 10 10 10 10 10 10 10 10 10 10 10 11 11 12 12 12 12 12 12 11 11 10 10 9 8 8 7 7 6 6 5 5 5
12 12 12 12 12 12 12 12 12 12 11 11 11 10 10 10 10 10 10 10 11 11 11 12 12 13 13 13 13 12 12 12 11 11 10 9 8 8 7 6 6 5 5
15 14 14 14 14 14 14 14 13 13 12 12 11 11 11 10 10 10 10 10 11 11 11 11 12 12 13 13 13 13 12 12 12 11 11 10 9 8 7 7 6 6 6
16 15 15 15 14 14 14 14 13 13 12 12 12 11 11 11 11 11 11 11 11 11 11 11 11 11 11 12 12 12 12 12 12 11 11 10 10 9 8 8 7 7 7
16 16 16 15 15 14 14 13 13 13 12 12 11 11 11 11 11 11 11 11 11 11 11 11 11 11 11 11 11 11 11 11 11 11 11 11 11 10 9 9 9 9 9
16 16 15 15 15 14 14 13 13 12 12 12 11 11 11 11 11 11 11 12 12 12 12 12 12 12 11 11 11 11 11 11 11 11 11 11 11 11 11 10 10 10 11
Wind_Direction
265 264 262 262 261 259 259 259 258 258 260 261 262 265 266 267 268 267 265 266 267 268 269 271 272 272 273 274 275 275 278 280 281 283 284 286 289 290 290 291 292 292 292
262 261 259 258 257 256 256 257 258 259 261 262 263 265 266 268 270 270 270 270 269 271 273 274 274 276 276 277 277 279 281 282 284 286 287 288 289 290 291 292 292 292 292
262 258 256 253 254 255 255 256 257 257 260 263 265 265 266 268 268 269 270 269 271 272 274 276 278 279 278 279 281 283 284 286 287 288 288 288 289 290 291 292 292 293 293
260 256 253 253 255 256 255 256 258 259 259 261 263 264 266 268 269 269 270 272 272 273 274 276 277 278 279 281 283 284 285 286 287 287 287 288 289 291 292 293 294 294 293
259 255 253 254 256 256 255 257 259 260 260 260 262 264 265 268 269 271 271 272 273 273 274 276 278 279 281 282 284 285 286 286 286 287 287 289 290 291 292 293 294 294 294
258 258 258 258 256 255 256 259 260 260 260 260 261 264 266 268 270 271 273 273 273 276 277 279 280 281 283 284 285 285 286 286 286 287 287 288 289 290 291 291 292 293 294
258 257 260 261 260 259 260 261 261 262 263 264 264 264 266 268 271 272 273 274 276 277 278 279 281 281 282 284 284 284 285 286 286 285 286 287 288 288 289 289 291 292 294
259 257 256 255 258 258 258 259 259 261 264 265 266 268 270 271 271 272 273 273 275 276 278 279 280 281 283 283 283 284 285 285 286 285 286 287 287 287 288 289 291 291 293
258 255 253 251 251 252 254 254 258 259 259 260 264 264 266 267 268 271 272 275 277 279 280 280 281 282 283 283 283 284 286 287 287 287 286 286 287 287 289 290 291 291 292
255 252 249 248 249 249 252 256 257 257 259 260 262 264 265 268 269 271 273 275 277 280 283 283 283 283 283 283 283 284 286 287 288 288 287 288 288 289 290 291 291 291 292
250 247 247 247 247 251 254 257 259 259 259 260 262 262 263 265 268 269 272 275 280 284 286 286 286 286 286 286 286 287 287 288 289 289 289 290 291 291 291 291 291 292 293
236 234 239 248 253 257 259 261 262 260 261 261 261 262 263 267 270 273 278 281 284 287 290 290 290 291 291 291 291 292 292 292 291 291 291 292 293 293 292 292 293 294 295
226 230 243 254 257 260 267 267 268 268 267 265 266 267 269 273 278 281 284 287 289 292 295 296 295 295 296 297 298 298 296 296 295 295 295 295 294 294 294 293 293 293 294
220 232 245 254 265 274 279 277 274 270 270 273 276 279 280 282 284 287 291 294 297 300 303 304 305 305 305 305 304 302 301 301 301 301 300 299 297 297 297 296 296 297 298
212 217 224 261 311 317 307 302 292 288 290 289 289 288 288 291 297 301 305 309 311 312 315 316 315 315 314 312 311 309 308 308 307 307 306 304 302 302 301 301 302 303 305
162 157 147 91 25 18 13 13 10 343 336 326 319 316 316 320 327 331 331 329 329 330 330 329 329 329 328 327 325 322 319 317 316 314 312 311 310 309 308 309 310 310 312
128 122 98 65 49 42 39 37 37 36 32 25 22 22 27 29 20 12 4 358 355 351 347 346 346 344 343 344 343 339 333 329 326 324 323 323 322 320 319 320 320 320 322
103 101 91 78 70 66 63 56 54 58 61 63 62 61 59 55 47 36 27 20 14 10 8 5 1 359 359 357 354 351 349 348 346 345 343 341 339 338 337 337 337 336 336
98 96 91 85 79 75 71 68 68 69 72 74 73 71 68 64 57 49 42 36 32 30 27 24 20 19 17 14 12 10 10 8 6 5 4 1 1 2 2 1 356 351 350
95 94 90 87 85 80 77 78 79 78 79 78 76 74 71 66 61 55 50 45 42 41 38 35 33 32 30 28 26 25 24 21 19 18 18 18 19 21 22 18 13 9 5
91 92 90 88 86 85 84 83 82 81 80 79 78 75 71 65 59 55 50 47 45 43 40 38 37 35 33 32 31 30 28 27 27 26 28 28 28 26 25 22 19 13 8
88 91 91 90 89 87 84 82 82 82 81 81 78 73 67 62 58 54 49 46 45 43 42 40 38 37 36 34 33 32 32 31 30 29 29 26 23 22 20 17 15 13 7
89 90 88 87 86 85 83 82 82 81 79 77 73 68 63 59 55 52 48 45 44 42 40 38 37 36 35 34 32 32 31 30 28 27 26 25 24 22 20 18 16 11 3
87 87 86 85 84 82 82 81 80 78 76 73 69 64 60 56 53 50 46 43 40 36 33 30 28 26 26 26 25 25 24 23 22 22 21 19 17 14 11 7 3 358 353
86 85 84 84 83 82 80 78 75 73 70 68 64 59 56 52 49 45 41 37 33 29 26 23 20 18 16 14 13 13 13 12 12 11 10 9 5 1 358 355 351 348 344
83 82 81 80 80 78 76 74 72 69 66 63 59 55 49 45 42 39 35 31 27 23 20 17 14 11 9 5 4 3 1 360 358 357 355 354 353 351 349 346 342 338 335
Height
5754 5755 5757 5758 5760 5761 5763 5764 5766 5767 5769 5770 5771 5772 5773 5774 5774 5774 5774 5774 5775 5775 5775 5775 5775 5775 5775 5775 5774 5773 5772 5770 5769 5767 5765 5763 5760 5758 5755 5752 5749 5745 5741
5749 5750 5751 5752 5754 5755 5757 5758 5760 5761 5763 5764 5765 5766 5767 5767 5767 5768 5768 5768 5768 5769 5769 5768 5768 5768 5768 5767 5766 5765 5763 5762 5760 5758 5756 5753 5751 5748 5745 5742 5738 5734 5731
5744 5744 5745 5747 5748 5750 5751 5752 5754 5755 5756 5757 5759 5760 5760 5761 5761 5761 5762 5762 5762 5762 5762 5761 5761 5760 5759 5759 5757 5756 5755 5753 5751 5749 5746 5744 5741 5738 5735 5732 5728 5725 5721
5738 5739 5740 5741 5743 5744 5745 5747 5748 5749 5750 5751 5752 5753 5754 5754 5754 5755 5755 5755 5755 5754 5754 5754 5753 5752 5751 5750 5749 5747 5745 5743 5741 5739 5737 5734 5731 5728 5726 5723 5719 5716 5713
5733 5734 5734 5736 5737 5738 5740 5741 5742 5743 5743 5745 5746 5747 5747 5748 5748 5748 5748 5748 5747 5747 5746 5746 5745 5744 5742 5741 5740 5738 5736 5734 5732 5730 5727 5725 5722 5720 5717 5714 5711 5708 5705
5727 5728 5729 5730 5731 5733 5734 5735 5736 5736 5737 5738 5739 5740 5740 5741 5741 5741 5741 5741 5740 5739 5739 5738 5737 5736 5734 5733 5731 5729 5727 5725 5723 5721 5718 5716 5714 5712 5709 5706 5704 5701 5698
5722 5723 5724 5725 5726 5727 5728 5729 5729 5730 5731 5732 5733 5733 5734 5734 5734 5734 5734 5734 5733 5732 5732 5731 5729 5728 5726 5725 5723 5721 5719 5717 5715 5713 5711 5708 5706 5704 5702 5700 5697 5694 5692
5717 5718 5719 5720 5721 5721 5722 5723 5724 5725 5726 5727 5727 5728 5728 5728 5728 5728 5728 5727 5726 5725 5724 5723 5722 5720 5718 5717 5715 5713 5711 5709 5707 5705 5703 5701 5699 5697 5695 5693 5690 5688 5686
5712 5713 5714 5715 5716 5717 5718 5719 5719 5720 5721 5721 5721 5722 5722 5722 5722 5722 5722 5721 5720 5718 5717 5716 5714 5713 5711 5709 5708 5706 5704 5702 5700 5698 5696 5694 5692 5690 5688 5686 5684 5682 5681
5708 5709 5710 5711 5712 5713 5714 5714 5715 5715 5716 5716 5716 5717 5717 5717 5717 5717 5716 5715 5714 5712 5711 5709 5707 5706 5704 5703 5701 5699 5698 5696 5694 5691 5690 5688 5686 5684 5682 5681 5679 5677 5675
5705 5706 5706 5707 5708 5709 5710 5710 5710 5710 5711 5711 5711 5711 5712 5712 5711 5711 5710 5709 5708 5706 5705 5703 5701 5700 5698 5696 5695 5693 5691 5689 5687 5686 5684 5682 5680 5678 5677 5675 5674 5672 5670
5703 5703 5704 5705 5705 5706 5706 5706 5706 5707 5707 5707 5707 5707 5707 5707 5706 5706 5705 5704 5702 5701 5699 5698 5696 5695 5693 5691 5689 5687 5686 5684 5682 5680 5679 5677 5675 5674 5672 5670 5669 5667 5666
5701 5702 5702 5703 5703 5704 5704 5704 5703 5703 5703 5703 5703 5703 5703 5703 5702 5701 5700 5699 5698 5697 5695 5694 5692 5690 5689 5687 5685 5683 5681 5679 5678 5676 5674 5673 5671 5669 5668 5666 5665 5664 5662
5700 5701 5701 5702 5702 5702 5702 5701 5701 5701 5700 5700 5700 5700 5700 5699 5699 5698 5697 5696 5695 5693 5692 5690 5689 5687 5685 5683 5681 5679 5677 5675 5674 5672 5670 5669 5667 5666 5664 5663 5662 5660 5659
5700 5700 5701 5701 5701 5701 5700 5700 5699 5699 5699 5698 5698 5698 5697 5697 5696 5696 5695 5694 5692 5691 5690 5688 5686 5684 5682 5680 5678 5676 5674 5672 5671 5669 5668 5666 5664 5663 5662 5660 5659 5658 5657
5699 5700 5700 5700 5700 5700 5699 5699 5699 5698 5698 5697 5697 5697 5696 5696 5695 5694 5693 5692 5691 5689 5688 5686 5684 5682 5680 5678 5676 5674 5672 5670 5669 5667 5665 5664 5662 5661 5660 5659 5657 5656 5655
5699 5700 5700 5700 5700 5700 5699 5699 5699 5698 5698 5697 5697 5696 5696 5695 5694 5693 5692 5691 5690 5688 5687 5685 5683 5681 5679 5677 5674 5672 5671 5669 5667 5665 5664 5662 5661 5660 5658 5657 5656 5655 5654
5699 5700 5700 5700 5700 5700 5700 5699 5699 5699 5698 5698 5697 5697 5696 5696 5695 5694 5693 5692 5690 5688 5687 5685 5683 5681 5678 5676 5674 5672 5670 5668 5666 5665 5663 5661 5660 5659 5658 5657 5656 5655 5654
5700 5700 5701 5701 5701 5701 5701 5700 5700 5700 5699 5699 5699 5698 5698 5697 5696 5695 5694 5692 5691 5689 5687 5685 5683 5681 5679 5676 5674 5672 5670 5668 5666 5665 5663 5661 5660 5659 5657 5656 5656 5655 5654
5701 5702 5702 5702 5703 5702 5702 5702 5702 5701 5701 5700 5700 5700 5699 5698 5697 5696 5695 5693 5692 5690 5688 5686 5684 5682 5680 5678 5675 5673 5671 5669 5667 5665 5664 5662 5661 5659 5658 5657 5656 5655 5654
5704 5704 5705 5705 5705 5704 5704 5704 5704 5704 5703 5703 5702 5702 5701 5700 5699 5698 5697 5695 5694 5692 5690 5688 5686 5684 5682 5679 5677 5675 5673 5671 5669 5667 5665 5663 5662 5661 5659 5658 5657 5656 5655
5707 5707 5707 5707 5707 5707 5707 5707 5707 5706 5706 5705 5705 5704 5704 5703 5701 5700 5699 5697 5696 5694 5692 5690 5688 5686 5684 5682 5679 5677 5675 5673 5671 5669 5667 5665 5663 5662 5660 5659 5657 5656 5655
5711 5711 5711 5711 5711 5711 5710 5710 5710 5710 5709 5708 5708 5707 5706 5705 5704 5702 5701 5699 5698 5696 5694 5692 5690 5688 5686 5684 5682 5680 5677 5675 5673 5671 5669 5667 5665 5663 5662 5660 5658 5657 5656
5715 5715 5715 5715 5715 5715 5714 5714 5714 5713 5712 5711 5711 5710 5709 5708 5706 5705 5703 5701 5700 5698 5696 5694 5692 5690 5688 5686 5684 5682 5679 5677 5675 5673 5670 5668 5666 5665 5663 5661 5659 5658 5656
5720 5720 5720 5719 5719 5718 5718 5718 5717 5716 5716 5715 5714 5713 5711 5710 5709 5707 5705 5703 5702 5700 5698 5696 5694 5692 5690 5688 5685 5683 5681 5679 5676 5674 5672 5670 5668 5666 5664 5662 5660 5658 5656
5725 5724 5724 5723 5723 5722 5721 5721 5720 5719 5718 5717 5716 5715 5714 5712 5711 5709 5707 5705 5703 5701 5699 5697 5695 5693 5690 5688 5686 5684 5682 5679 5677 5675 5672 5670 5668 5666 5664 5661 5659 5657 5655